| time (UTC) | temp F | wind direction | speed MPH | gust MPH | rain 1hr in | rain 24hr in | rain mn in | humidity % | barometer mb |
| 20260509083100 | 58 | 300 | 7.0 | 12.0 | 0.00 | 0.00 | 0.00 | 37 | 1007.8 |
| 20260509081550 | 59 | 292 | 7.0 | 14.0 | 0.00 | 0.00 | 0.00 | 36 | 1007.6 |
| 20260509080054 | 59 | 319 | 6.0 | 12.0 | 0.00 | 0.00 | 0.00 | 35 | 1007.6 |
| 20260509074536 | 59 | 304 | 9.0 | 14.0 | 0.00 | 0.00 | 0.00 | 35 | 1007.4 |
| 20260509073108 | 60 | 300 | 8.0 | 13.0 | 0.00 | 0.00 | 0.00 | 36 | 1007.3 |
| 20260509071524 | 60 | 298 | 6.0 | 12.0 | 0.00 | 0.00 | 0.00 | 39 | 1007.1 |
| 20260509070016 | 61 | 323 | 7.0 | 13.0 | 0.00 | 0.00 | 0.00 | 42 | 1007.0 |
| 20260509064503 | 61 | 310 | 6.0 | 13.0 | 0.00 | 0.00 | 0.00 | 38 | 1006.9 |
| 20260509063053 | 60 | 287 | 6.0 | 10.0 | 0.00 | 0.00 | 0.00 | 37 | 1006.6 |
| 20260509061552 | 60 | 279 | 6.0 | 9.0 | 0.00 | 0.00 | 0.00 | 37 | 1006.4 |
| 20260509060033 | 60 | 279 | 5.0 | 9.0 | 0.00 | 0.00 | 0.00 | 39 | 1006.5 |
| 20260509054530 | 60 | 286 | 4.0 | 10.0 | 0.00 | 0.00 | 0.00 | 39 | 1006.6 |
| 20260509053015 | 59 | 309 | 6.0 | 12.0 | 0.00 | 0.00 | 0.00 | 39 | 1006.7 |
| 20260509051507 | 59 | 302 | 9.0 | 14.0 | 0.00 | 0.00 | 0.00 | 37 | 1006.6 |
| 20260509050059 | 59 | 238 | 1.0 | 4.0 | 0.00 | 0.00 | 0.00 | 34 | 1006.0 |
| 20260509044559 | 60 | 238 | 3.0 | 4.0 | 0.00 | 0.00 | 0.00 | 34 | 1006.0 |
| 20260509043056 | 61 | 238 | 1.0 | 7.0 | 0.00 | 0.00 | 0.00 | 33 | 1005.9 |
| 20260509041552 | 61 | 232 | 1.0 | 3.0 | 0.00 | 0.00 | 0.00 | 35 | 1005.8 |
| 20260509040042 | 61 | 233 | 2.0 | 4.0 | 0.00 | 0.00 | 0.00 | 34 | 1005.8 |
| 20260509034533 | 61 | 232 | 1.0 | 5.0 | 0.00 | 0.00 | 0.00 | 33 | 1005.7 |
| 20260509033026 | 62 | 231 | 2.0 | 5.0 | 0.00 | 0.00 | 0.00 | 33 | 1005.4 |
| 20260509031520 | 62 | 253 | 2.0 | 4.0 | 0.00 | 0.00 | 0.00 | 34 | 1005.4 |
| 20260509030111 | 62 | 292 | 2.0 | 3.0 | 0.00 | 0.00 | 0.00 | 35 | 1005.2 |
| 20260509024502 | 64 | 292 | 1.0 | 2.0 | 0.00 | 0.00 | 0.00 | 35 | 1005.4 |
| 20260509023055 | 65 | 293 | 0.0 | 1.0 | 0.00 | 0.00 | 0.00 | 35 | 1005.3 |
| 20260509021548 | 67 | 293 | 0.0 | 2.0 | 0.00 | 0.00 | 0.00 | 32 | 1005.1 |
| 20260509020038 | 70 | 293 | 0.0 | 2.0 | 0.00 | 0.00 | 0.00 | 29 | 1005.1 |
| 20260509014538 | 74 | 293 | 1.0 | 4.0 | 0.00 | 0.00 | 0.00 | 23 | 1005.0 |
| 20260509013046 | 76 | 289 | 2.0 | 4.0 | 0.00 | 0.00 | 0.00 | 21 | 1005.1 |
| 20260509011529 | 77 | 278 | 1.0 | 7.0 | 0.00 | 0.00 | 0.00 | 20 | 1005.2 |
| 20260509010023 | 77 | 336 | 0.0 | 3.0 | 0.00 | 0.00 | 0.00 | 21 | 1005.4 |
| 20260509004517 | 77 | 341 | 3.0 | 8.0 | 0.00 | 0.00 | 0.00 | 20 | 1005.6 |
| 20260509003007 | 77 | 329 | 4.0 | 8.0 | 0.00 | 0.00 | 0.00 | 22 | 1005.6 |
| 20260509001606 | 77 | 331 | 5.0 | 12.0 | 0.00 | 0.00 | 0.00 | 21 | 1005.6 |
| 20260509000015 | 76 | 313 | 6.0 | 12.0 | 0.00 | 0.00 | 0.00 | 22 | 1005.8 |
| 20260508234514 | 77 | 334 | 7.0 | 13.0 | 0.00 | 0.00 | 0.00 | 22 | 1005.9 |
| 20260508233012 | 77 | 360 | 4.0 | 11.0 | 0.00 | 0.00 | 0.00 | 22 | 1005.8 |
| 20260508231503 | 77 | 360 | 7.0 | 13.0 | 0.00 | 0.00 | 0.00 | 23 | 1006.0 |
| 20260508230100 | 77 | 350 | 7.0 | 14.0 | 0.00 | 0.00 | 0.00 | 22 | 1006.0 |
| 20260508224547 | 76 | 321 | 8.0 | 17.0 | 0.00 | 0.00 | 0.00 | 24 | 1006.1 |
| 20260508223044 | 77 | 355 | 10.0 | 16.0 | 0.00 | 0.00 | 0.00 | 22 | 1006.5 |
| 20260508221537 | 77 | 351 | 9.0 | 16.0 | 0.00 | 0.00 | 0.00 | 22 | 1006.7 |
| 20260508220023 | 77 | 336 | 7.0 | 13.0 | 0.00 | 0.00 | 0.00 | 24 | 1006.9 |
| 20260508214515 | 76 | 325 | 11.0 | 20.0 | 0.00 | 0.00 | 0.00 | 22 | 1006.9 |
| 20260508213004 | 76 | 343 | 12.0 | 22.0 | 0.00 | 0.00 | 0.00 | 23 | 1007.1 |
| 20260508211557 | 75 | 9 | 9.0 | 19.0 | 0.00 | 0.00 | 0.00 | 25 | 1007.5 |
| 20260508210057 | 76 | 360 | 12.0 | 19.0 | 0.00 | 0.00 | 0.00 | 23 | 1007.5 |
| 20260508204542 | 76 | 351 | 11.0 | 17.0 | 0.00 | 0.00 | 0.00 | 24 | 1007.7 |
| 20260508203035 | 76 | 333 | 11.0 | 18.0 | 0.00 | 0.00 | 0.00 | 27 | 1007.9 |
| 20260508201525 | 75 | 333 | 10.0 | 20.0 | 0.00 | 0.00 | 0.00 | 25 | 1007.9 |
| 20260508200017 | 75 | 5 | 12.0 | 19.0 | 0.00 | 0.00 | 0.00 | 25 | 1008.0 |
| 20260508194516 | 74 | 350 | 12.0 | 21.0 | 0.00 | 0.00 | 0.00 | 26 | 1008.0 |
| 20260508191506 | 74 | 344 | 11.0 | 17.0 | 0.00 | 0.00 | 0.00 | 27 | 1008.4 |
| 20260508190005 | 74 | 333 | 12.0 | 18.0 | 0.00 | 0.00 | 0.00 | 27 | 1008.5 |
| 20260508184620 | 73 | 331 | 11.0 | 21.0 | 0.00 | 0.00 | 0.00 | 27 | 1008.7 |
| 20260508183044 | 73 | 330 | 11.0 | 18.0 | 0.00 | 0.00 | 0.00 | 29 | 1008.8 |
| 20260508181549 | 73 | 344 | 10.0 | 18.0 | 0.00 | 0.00 | 0.00 | 28 | 1009.0 |
| 20260508180033 | 72 | 327 | 12.0 | 21.0 | 0.00 | 0.00 | 0.00 | 26 | 1008.9 |
| 20260508174529 | 72 | 338 | 10.0 | 21.0 | 0.00 | 0.00 | 0.00 | 29 | 1009.0 |
| 20260508173025 | 71 | 326 | 9.0 | 20.0 | 0.00 | 0.00 | 0.00 | 28 | 1008.9 |
| 20260508171513 | 71 | 296 | 11.0 | 18.0 | 0.00 | 0.00 | 0.00 | 30 | 1008.8 |
| 20260508170002 | 70 | 340 | 8.0 | 16.0 | 0.00 | 0.00 | 0.00 | 36 | 1009.0 |
| 20260508164600 | 69 | 355 | 6.0 | 12.0 | 0.00 | 0.00 | 0.00 | 36 | 1009.0 |
| 20260508163047 | 67 | 26 | 3.0 | 8.0 | 0.00 | 0.00 | 0.00 | 42 | 1009.1 |
| 20260508161549 | 66 | 26 | 4.0 | 8.0 | 0.00 | 0.00 | 0.00 | 40 | 1009.0 |
| 20260508160032 | 65 | 348 | 7.0 | 10.0 | 0.00 | 0.00 | 0.00 | 44 | 1009.0 |
| 20260508154510 | 64 | 11 | 4.0 | 9.0 | 0.00 | 0.00 | 0.00 | 44 | 1008.9 |
| 20260508153004 | 62 | 45 | 1.0 | 6.0 | 0.00 | 0.00 | 0.00 | 45 | 1009.0 |
| 20260508151521 | 61 | 42 | 3.0 | 4.0 | 0.00 | 0.00 | 0.00 | 49 | 1008.8 |
| 20260508150011 | 59 | 338 | 0.0 | 4.0 | 0.00 | 0.00 | 0.00 | 48 | 1008.7 |
| 20260508144620 | 57 | 317 | 1.0 | 3.0 | 0.00 | 0.00 | 0.00 | 51 | 1008.7 |
| 20260508143045 | 56 | 287 | 1.0 | 3.0 | 0.00 | 0.00 | 0.00 | 54 | 1008.7 |
| 20260508141547 | 54 | 273 | 1.0 | 2.0 | 0.00 | 0.00 | 0.00 | 56 | 1008.7 |
| 20260508140008 | 52 | 273 | 0.0 | 2.0 | 0.00 | 0.00 | 0.00 | 62 | 1008.6 |
| 20260508134600 | 50 | 273 | 0.0 | 2.0 | 0.00 | 0.00 | 0.00 | 64 | 1008.6 |
| 20260508133110 | 49 | 273 | 0.0 | 0.0 | 0.00 | 0.00 | 0.00 | 63 | 1008.4 |
| 20260508131536 | 48 | 273 | 0.0 | 0.0 | 0.00 | 0.00 | 0.00 | 61 | 1008.2 |
| 20260508130027 | 48 | 273 | 0.0 | 3.0 | 0.00 | 0.00 | 0.00 | 60 | 1008.2 |
| 20260508124539 | 48 | 273 | 0.0 | 2.0 | 0.00 | 0.00 | 0.00 | 59 | 1008.0 |
| 20260508123029 | 48 | 273 | 0.0 | 3.0 | 0.00 | 0.00 | 0.00 | 58 | 1007.8 |
| 20260508121520 | 49 | 273 | 1.0 | 3.0 | 0.00 | 0.00 | 0.00 | 57 | 1007.7 |
| 20260508120017 | 50 | 273 | 2.0 | 3.0 | 0.00 | 0.00 | 0.00 | 56 | 1007.7 |
| 20260508114508 | 50 | 273 | 2.0 | 4.0 | 0.00 | 0.00 | 0.00 | 54 | 1007.6 |
| 20260508113109 | 51 | 273 | 2.0 | 6.0 | 0.00 | 0.00 | 0.00 | 53 | 1007.6 |
| 20260508111607 | 51 | 300 | 3.0 | 5.0 | 0.00 | 0.00 | 0.00 | 53 | 1007.5 |
| 20260508110055 | 51 | 312 | 3.0 | 6.0 | 0.00 | 0.00 | 0.00 | 52 | 1007.4 |
| 20260508104539 | 51 | 263 | 4.0 | 6.0 | 0.00 | 0.00 | 0.00 | 51 | 1007.3 |
| 20260508103029 | 52 | 261 | 2.0 | 4.0 | 0.00 | 0.00 | 0.00 | 49 | 1007.1 |
| 20260508101511 | 52 | 261 | 2.0 | 4.0 | 0.00 | 0.00 | 0.00 | 49 | 1007.1 |
| 20260508100003 | 52 | 261 | 5.0 | 7.0 | 0.00 | 0.00 | 0.00 | 49 | 1007.2 |
| 20260508094602 | 52 | 259 | 5.0 | 7.0 | 0.00 | 0.00 | 0.00 | 48 | 1007.1 |
| 20260508093058 | 53 | 261 | 3.0 | 7.0 | 0.00 | 0.00 | 0.00 | 47 | 1006.9 |
| 20260508091609 | 54 | 263 | 4.0 | 7.0 | 0.00 | 0.00 | 0.00 | 47 | 1007.0 |
| 20260508090110 | 54 | 262 | 5.0 | 7.0 | 0.00 | 0.00 | 0.00 | 47 | 1006.9 |
| 20260508084548 | 55 | 274 | 4.0 | 7.0 | 0.00 | 0.00 | 0.00 | 46 | 1007.1 |